This is the latest recevied weather packets stored in our database for station/object SP9KB-13. If no packets are shown the sender has not sent any weather packets the latest 10 day(s).
| Time | Temp. | Humidity | Pressure | Rain* | Wind** | Luminosity | Snow |
|---|---|---|---|---|---|---|---|
| 1777959340 | 16.67° C | 44% | 995.8 hPa | 0 mm | - | - | - |
| 1777959039 | 16.11° C | 46% | 995.8 hPa | 0 mm | - | - | - |
| 1777958739 | 16.11° C | 47% | 995.7 hPa | 0 mm | - | - | - |
| 1777958438 | 15.56° C | 48% | 995.9 hPa | 0 mm | - | - | - |
| 1777958138 | 15° C | 49% | 996 hPa | 0 mm | - | - | - |
| 1777957837 | 13.33° C | 59% | 995.9 hPa | 0 mm | - | - | - |
| 1777957537 | 11.67° C | 69% | 995.9 hPa | 0 mm | - | - | - |
| 1777957236 | 10° C | 74% | 995.9 hPa | 0 mm | - | - | - |
| 1777956935 | 8.89° C | 74% | 996 hPa | 0 mm | - | - | - |
| 1777956635 | 7.78° C | 79% | 996 hPa | 0 mm | - | - | - |
| 1777956334 | 7.22° C | 82% | 995.9 hPa | 0 mm | - | - | - |
| 1777956034 | 7.22° C | 82% | 995.9 hPa | 0 mm | - | - | - |
| 1777955733 | 7.22° C | 81% | 996 hPa | 0 mm | - | - | - |
| 1777955433 | 6.67° C | 82% | 996 hPa | 0 mm | - | - | - |
| 1777955132 | 6.11° C | 83% | 995.8 hPa | 0 mm | - | - | - |
| 1777954831 | 5° C | 87% | 995.9 hPa | 0 mm | - | - | - |
| 1777954531 | 4.44° C | 89% | 995.9 hPa | 0 mm | - | - | - |
| 1777954230 | 3.89° C | 94% | 995.9 hPa | 0 mm | - | - | - |
| 1777953930 | 2.78° C | 96% | 996 hPa | 0 mm | - | - | - |
| 1777953629 | 1.67° C | 96% | 996 hPa | 0 mm | - | - | - |
| 1777953328 | 1.67° C | 96% | 996.1 hPa | 0 mm | - | - | - |
| 1777953028 | 1.67° C | 96% | 996 hPa | 0 mm | - | - | - |
| 1777952727 | 1.67° C | 96% | 996.1 hPa | 0 mm | - | - | - |
| 1777952427 | 1.11° C | 96% | 996.1 hPa | 0 mm | - | - | - |
| 1777952126 | 1.67° C | 96% | 996 hPa | 0 mm | - | - | - |
* Rain latest hour (hover to see other rain measurements)
** Current wind speed in m/s (hover to see current wind gust speed)